Portada
METAR-TAF:

METAR-TAF

Aeroports :

Paraguaná, Veneçuela

latitud: 11-47N, longitud: 070-09W, altitud: 23 m

METAR: manca

Hora: 14:58 (18:58 UTC)

Pronòstic

L'informe es va fer fa 8 hores i 58 minuts, a les 10:00 UTC
Pronòstic vàlid del 24 a les 18 UTC al 25 a les 18 UTC
Vent 5 kt del Est/Sud-Est
Visibilitat 10 km o més
Escasses núvols a una alçada de 1600 ft
Evolucionant progressivament
l' 24 a les 18 UTC al 24 a les 22 UTC
Vent 2 kt del Est
Núvols disperses a una alçada de 1600 ft

TAF: SVJC 241000Z 2418/2518 12005KT 9999 FEW016 TX34/2419Z TN24/2308Z BECMG 2418/2422 09002KT SCT016

Observacions i pronòstics meteorològics de més de 4000 aeroports (METAR i TAF).

Les estacions disponibles són els punts grocs i vermells al mapa.

Posi el ratolí al punt desitjat per veure el nom de l'estació.

Feu clic per veure les observacions i els pronòstics meteorològics.

Per canviar el mapa: feu clic els botons verds amb una creu de color negre per apropar; al botó verd amb un guió per allunyar la imatge; o en les fletxes verdes per a mapes adjacents.


METAR-TAF: